UAE660 OMDB-VRMM

Flight info

Callsign UAE660
Flight time N/A
Altitude 37000
Route ANVIX L223 TARDI N629 GIDAN P570 KITAL L894 ELBET
Aircraft B77W/H-SDE1E2E3FGHIJ4J5M1P2RWXYZ/LB1D1

Departure

Time N/A
Airport Dubai International Airport (OMDB)

Arrival

Time 2026-05-01 10:43
Airport Velana International Airport (VRMM)
Time Latitude Longitude Altitude Speed Heading
2026-05-01 07:23 23.22030 58.05340 36718 ft 498 kts 127°
2026-05-01 07:23 23.18146 58.11591 37127 ft 503 kts 127°
2026-05-01 07:24 23.16184 58.14732 37374 ft 502 kts 127°
2026-05-01 07:24 23.14213 58.17876 37628 ft 502 kts 127°
2026-05-01 07:24 23.12243 58.21011 37815 ft 504 kts 127°
2026-05-01 07:25 23.08293 58.27273 37668 ft 502 kts 127°
2026-05-01 07:25 23.06315 58.30402 37507 ft 500 kts 127°
2026-05-01 07:25 23.04346 58.33494 37335 ft 498 kts 130°
2026-05-01 07:25 23.02152 58.36329 37161 ft 492 kts 138°
2026-05-01 07:26 22.99605 58.38806 36923 ft 486 kts 147°
2026-05-01 07:26 22.93961 58.42759 36883 ft 485 kts 152°
2026-05-01 07:27 22.88199 58.46581 36861 ft 486 kts 152°
2026-05-01 07:27 22.82416 58.50412 36793 ft 485 kts 152°
2026-05-01 07:28 22.76767 58.54150 36717 ft 485 kts 152°
2026-05-01 07:28 22.71081 58.57909 36689 ft 485 kts 152°
2026-05-01 07:29 22.65337 58.61703 36676 ft 485 kts 152°
2026-05-01 07:29 22.59561 58.65516 36670 ft 485 kts 152°
2026-05-01 07:30 22.53800 58.69316 36659 ft 485 kts 152°
2026-05-01 07:30 22.48061 58.73097 36653 ft 485 kts 152°
2026-05-01 07:31 22.42285 58.76898 36653 ft 485 kts 152°
2026-05-01 07:32 22.27880 58.86362 36653 ft 485 kts 152°
2026-05-01 07:33 22.19211 58.92049 36650 ft 485 kts 152°
2026-05-01 07:33 22.10553 58.97717 36651 ft 485 kts 152°
2026-05-01 07:34 22.01926 59.03360 36654 ft 485 kts 152°
2026-05-01 07:35 21.96135 59.07143 36674 ft 484 kts 152°
2026-05-01 07:35 21.90401 59.10883 36883 ft 485 kts 152°
2026-05-01 07:35 21.87495 59.12778 37000 ft 485 kts 152°
2026-05-01 07:36 21.84616 59.14654 37094 ft 486 kts 152°
2026-05-01 07:36 21.78793 59.18446 37015 ft 486 kts 152°
2026-05-01 07:37 21.70143 59.24074 36838 ft 484 kts 152°
2026-05-01 07:37 21.64381 59.27817 36845 ft 485 kts 152°
2026-05-01 07:38 21.58608 59.31564 36871 ft 485 kts 152°
2026-05-01 07:39 21.49934 59.37191 36870 ft 485 kts 152°
2026-05-01 07:39 21.41279 59.42799 36870 ft 485 kts 152°
2026-05-01 07:40 21.35525 59.46522 36868 ft 485 kts 152°
2026-05-01 07:40 21.29724 59.50273 36869 ft 485 kts 152°
2026-05-01 07:41 21.23945 59.54005 36871 ft 485 kts 152°
2026-05-01 07:42 21.15254 59.59610 36873 ft 485 kts 152°
2026-05-01 07:42 21.09491 59.63322 36874 ft 485 kts 152°
2026-05-01 07:43 21.03699 59.67049 36867 ft 485 kts 152°
2026-05-01 07:43 20.95021 59.72627 36868 ft 485 kts 152°
2026-05-01 07:44 20.83394 59.80083 36872 ft 486 kts 152°
2026-05-01 07:45 20.77595 59.83796 36873 ft 486 kts 152°
2026-05-01 07:45 20.71802 59.87502 36874 ft 487 kts 152°
2026-05-01 07:46 20.65976 59.91227 36875 ft 487 kts 152°
2026-05-01 07:47 20.57253 59.96797 36876 ft 487 kts 152°
2026-05-01 07:47 20.51430 60.00510 36876 ft 488 kts 152°
2026-05-01 07:48 20.42710 60.06067 36877 ft 488 kts 152°
2026-05-01 07:48 20.36882 60.09777 36878 ft 488 kts 152°
2026-05-01 07:49 20.28103 60.15360 36878 ft 489 kts 152°
2026-05-01 07:50 20.22261 60.19069 36878 ft 489 kts 152°
2026-05-01 07:50 20.13513 60.24619 36879 ft 489 kts 152°
2026-05-01 07:51 20.07645 60.28338 36879 ft 489 kts 152°
2026-05-01 07:52 19.99646 60.35090 36882 ft 494 kts 140°
2026-05-01 07:52 19.94528 60.39968 36881 ft 494 kts 140°
2026-05-01 07:53 19.86836 60.47287 36884 ft 494 kts 140°
2026-05-01 07:53 19.81741 60.52124 36884 ft 493 kts 140°
2026-05-01 07:55 19.68973 60.64227 36885 ft 492 kts 140°
2026-05-01 07:56 19.56208 60.76298 36873 ft 491 kts 140°
2026-05-01 07:57 19.48564 60.83515 36861 ft 490 kts 140°
2026-05-01 07:58 19.38357 60.93138 36879 ft 490 kts 140°
2026-05-01 07:59 19.28172 61.02716 36882 ft 489 kts 140°
2026-05-01 08:00 19.12920 61.17038 36881 ft 489 kts 140°
2026-05-01 08:01 19.02755 61.26562 36881 ft 488 kts 140°
2026-05-01 08:02 18.95129 61.33695 36881 ft 488 kts 140°
2026-05-01 08:03 18.87517 61.40807 36882 ft 488 kts 139°
2026-05-01 08:03 18.79879 61.47934 36881 ft 488 kts 139°
2026-05-01 08:04 18.69716 61.57403 36865 ft 488 kts 139°
2026-05-01 08:05 18.62115 61.64475 36859 ft 487 kts 139°
2026-05-01 08:06 18.54462 61.71586 36856 ft 487 kts 139°
2026-05-01 08:07 18.44313 61.81003 36856 ft 488 kts 139°
2026-05-01 08:08 18.36670 61.88084 36857 ft 488 kts 139°
2026-05-01 08:09 18.26488 61.97506 36857 ft 487 kts 139°
2026-05-01 08:09 18.21387 62.02219 36857 ft 488 kts 139°
2026-05-01 08:10 18.11181 62.11638 36866 ft 487 kts 139°
2026-05-01 08:11 18.01030 62.20993 36875 ft 487 kts 139°
2026-05-01 08:12 17.93358 62.28052 36875 ft 487 kts 139°
2026-05-01 08:13 17.85715 62.35076 36874 ft 487 kts 139°
2026-05-01 08:13 17.78070 62.42094 36874 ft 487 kts 139°
2026-05-01 08:14 17.72975 62.46767 36874 ft 487 kts 139°
2026-05-01 08:14 17.67871 62.51444 36873 ft 487 kts 139°
2026-05-01 08:15 17.60215 62.58453 36872 ft 487 kts 139°
2026-05-01 08:16 17.55132 62.63101 36872 ft 487 kts 139°
2026-05-01 08:16 17.49998 62.67793 36868 ft 487 kts 139°
2026-05-01 08:17 17.44923 62.72427 36866 ft 487 kts 139°
2026-05-01 08:17 17.39811 62.77093 36866 ft 487 kts 139°
2026-05-01 08:18 17.34677 62.81774 36867 ft 487 kts 139°
2026-05-01 08:19 17.24462 62.91076 36868 ft 487 kts 139°
2026-05-01 08:19 17.19342 62.95734 36868 ft 487 kts 139°
2026-05-01 08:20 17.14233 63.00379 36868 ft 487 kts 139°
2026-05-01 08:20 17.09150 63.04994 36868 ft 487 kts 139°
2026-05-01 08:21 17.04018 63.09652 36868 ft 487 kts 139°
2026-05-01 08:21 16.98886 63.14259 36868 ft 487 kts 140°
2026-05-01 08:22 16.93686 63.18758 36869 ft 487 kts 140°
2026-05-01 08:22 16.88451 63.23289 36868 ft 486 kts 140°
2026-05-01 08:23 16.83258 63.27786 36868 ft 486 kts 140°
2026-05-01 08:23 16.78048 63.32295 36868 ft 486 kts 140°
2026-05-01 08:24 16.72859 63.36785 36868 ft 486 kts 140°
2026-05-01 08:24 16.67654 63.41286 36869 ft 486 kts 140°
2026-05-01 08:25 16.62434 63.45797 36869 ft 485 kts 140°
2026-05-01 08:25 16.57236 63.50286 36869 ft 485 kts 140°
2026-05-01 08:26 16.52033 63.54777 36870 ft 485 kts 140°
2026-05-01 08:26 16.46858 63.59241 36870 ft 485 kts 140°
2026-05-01 08:27 16.41671 63.63710 36870 ft 485 kts 140°
2026-05-01 08:27 16.36470 63.68190 36863 ft 485 kts 140°
2026-05-01 08:28 16.31262 63.72673 36858 ft 485 kts 140°
2026-05-01 08:28 16.26071 63.77137 36858 ft 485 kts 140°
2026-05-01 08:29 16.20860 63.81615 36858 ft 484 kts 140°
2026-05-01 08:29 16.15651 63.86091 36859 ft 484 kts 140°
2026-05-01 08:30 16.10471 63.90535 36858 ft 484 kts 140°
2026-05-01 08:30 16.05279 63.94987 36856 ft 484 kts 140°
2026-05-01 08:31 16.00099 63.99426 36853 ft 484 kts 140°
2026-05-01 08:31 15.94888 64.03889 36853 ft 484 kts 140°
2026-05-01 08:32 15.89712 64.08318 36853 ft 484 kts 139°
2026-05-01 08:32 15.84489 64.12785 36851 ft 484 kts 139°
2026-05-01 08:33 15.79300 64.17220 36850 ft 484 kts 139°
2026-05-01 08:33 15.74113 64.21648 36850 ft 484 kts 140°
2026-05-01 08:34 15.68921 64.26080 36851 ft 484 kts 139°
2026-05-01 08:34 15.63703 64.30529 36851 ft 483 kts 139°
2026-05-01 08:35 15.58545 64.34926 36851 ft 483 kts 139°
2026-05-01 08:35 15.53333 64.39364 36851 ft 482 kts 139°
2026-05-01 08:36 15.48166 64.43763 36851 ft 482 kts 139°
2026-05-01 08:36 15.42975 64.48178 36851 ft 482 kts 139°
2026-05-01 08:37 15.37803 64.52575 36851 ft 482 kts 139°
2026-05-01 08:37 15.32622 64.56976 36852 ft 481 kts 139°
2026-05-01 08:38 15.27436 64.61378 36852 ft 481 kts 139°
2026-05-01 08:38 15.22253 64.65775 36852 ft 481 kts 140°
2026-05-01 08:39 15.17067 64.70171 36853 ft 480 kts 140°
2026-05-01 08:39 15.11918 64.74533 36853 ft 480 kts 140°
2026-05-01 08:40 15.04146 64.81113 36853 ft 480 kts 140°
2026-05-01 08:40 14.98987 64.85477 36854 ft 480 kts 140°
2026-05-01 08:41 14.93836 64.89831 36854 ft 479 kts 140°
2026-05-01 08:41 14.88679 64.94187 36853 ft 479 kts 140°
2026-05-01 08:42 14.83516 64.98546 36853 ft 479 kts 140°
2026-05-01 08:42 14.78332 65.02920 36853 ft 479 kts 140°
2026-05-01 08:43 14.73177 65.07267 36853 ft 478 kts 140°
2026-05-01 08:43 14.68027 65.11606 36854 ft 478 kts 140°
2026-05-01 08:44 14.62875 65.15944 36851 ft 478 kts 140°
2026-05-01 08:44 14.57735 65.20270 36847 ft 478 kts 140°
2026-05-01 08:45 14.52555 65.24624 36846 ft 478 kts 140°
2026-05-01 08:45 14.47428 65.28930 36846 ft 477 kts 140°
2026-05-01 08:46 14.42264 65.33265 36853 ft 477 kts 140°
2026-05-01 08:46 14.37130 65.37572 36863 ft 477 kts 140°
2026-05-01 08:47 14.31971 65.41898 36872 ft 477 kts 140°
2026-05-01 08:47 14.26817 65.46216 36879 ft 476 kts 140°
2026-05-01 08:48 14.21686 65.50513 36881 ft 476 kts 140°
2026-05-01 08:48 14.16529 65.54829 36881 ft 476 kts 140°
2026-05-01 08:49 14.11416 65.59106 36881 ft 476 kts 140°
2026-05-01 08:49 14.06281 65.63398 36881 ft 475 kts 140°
2026-05-01 08:50 14.01135 65.67697 36882 ft 475 kts 140°
2026-05-01 08:50 13.96010 65.71976 36882 ft 475 kts 140°
2026-05-01 08:51 13.90854 65.76280 36883 ft 475 kts 140°
2026-05-01 08:51 13.85728 65.80554 36883 ft 475 kts 140°
2026-05-01 08:52 13.80599 65.84828 36883 ft 475 kts 140°
2026-05-01 08:52 13.75462 65.89108 36883 ft 475 kts 140°
2026-05-01 08:53 13.70348 65.93364 36883 ft 475 kts 140°
2026-05-01 08:53 13.65193 65.97652 36883 ft 475 kts 140°
2026-05-01 08:54 13.60085 66.01899 36884 ft 475 kts 140°
2026-05-01 08:54 13.54944 66.06172 36884 ft 475 kts 140°
2026-05-01 08:55 13.49814 66.10432 36884 ft 474 kts 140°
2026-05-01 08:55 13.44650 66.14719 36884 ft 474 kts 140°
2026-05-01 08:56 13.39528 66.18969 36885 ft 474 kts 140°
2026-05-01 08:56 13.34403 66.23219 36884 ft 475 kts 140°
2026-05-01 08:57 13.29262 66.27480 36885 ft 475 kts 140°
2026-05-01 08:57 13.24134 66.31726 36885 ft 474 kts 140°
2026-05-01 08:58 13.18984 66.35988 36885 ft 474 kts 140°
2026-05-01 08:58 13.13834 66.40249 36885 ft 474 kts 140°
2026-05-01 08:59 13.08701 66.44493 36885 ft 474 kts 140°
2026-05-01 08:59 13.03561 66.48741 36885 ft 474 kts 140°
2026-05-01 09:00 12.98443 66.52966 36885 ft 474 kts 140°
2026-05-01 09:00 12.93307 66.57206 36885 ft 474 kts 140°
2026-05-01 09:01 12.88179 66.61438 36884 ft 474 kts 140°
2026-05-01 09:01 12.83022 66.65691 36885 ft 474 kts 140°
2026-05-01 09:02 12.77890 66.69920 36886 ft 474 kts 140°
2026-05-01 09:02 12.72776 66.74133 36886 ft 474 kts 140°
2026-05-01 09:03 12.67614 66.78383 36886 ft 473 kts 140°
2026-05-01 09:03 12.62487 66.82601 36886 ft 473 kts 140°
2026-05-01 09:04 12.57344 66.86830 36885 ft 473 kts 140°
2026-05-01 09:04 12.52232 66.91032 36885 ft 473 kts 140°
2026-05-01 09:05 12.47091 66.95255 36879 ft 471 kts 140°
2026-05-01 09:05 12.41994 66.99439 36879 ft 469 kts 140°
2026-05-01 09:06 12.36903 67.03618 36886 ft 469 kts 140°
2026-05-01 09:06 12.31813 67.07792 36882 ft 468 kts 140°
2026-05-01 09:07 12.26756 67.11938 36878 ft 468 kts 140°
2026-05-01 09:07 12.21655 67.16119 36878 ft 468 kts 140°
2026-05-01 09:08 12.16582 67.20275 36879 ft 467 kts 140°
2026-05-01 09:08 12.11533 67.24406 36878 ft 467 kts 140°
2026-05-01 09:09 12.06462 67.28554 36878 ft 466 kts 140°
2026-05-01 09:09 12.01391 67.32701 36878 ft 466 kts 140°
2026-05-01 09:10 11.96308 67.36858 36878 ft 466 kts 140°
2026-05-01 09:10 11.91273 67.40971 36877 ft 465 kts 140°
2026-05-01 09:11 11.86209 67.45106 36880 ft 465 kts 140°
2026-05-01 09:11 11.81150 67.49238 36880 ft 465 kts 140°
2026-05-01 09:12 11.76113 67.53348 36877 ft 465 kts 140°
2026-05-01 09:12 11.71024 67.57499 36878 ft 465 kts 140°
2026-05-01 09:13 11.65991 67.61601 36879 ft 465 kts 140°
2026-05-01 09:13 11.60946 67.65712 36880 ft 465 kts 140°
2026-05-01 09:14 11.55851 67.69862 36876 ft 465 kts 140°
2026-05-01 09:14 11.50811 67.73965 36864 ft 465 kts 140°
2026-05-01 09:15 11.45744 67.78088 36857 ft 465 kts 140°
2026-05-01 09:15 11.40677 67.82208 36857 ft 465 kts 140°
2026-05-01 09:16 11.35617 67.86321 36858 ft 465 kts 140°
2026-05-01 09:17 11.28022 67.92492 36858 ft 465 kts 140°
2026-05-01 09:17 11.20420 67.98664 36858 ft 466 kts 140°
2026-05-01 09:18 11.12828 68.04824 36857 ft 466 kts 140°
2026-05-01 09:19 11.05238 68.10976 36859 ft 466 kts 140°
2026-05-01 09:20 10.97631 68.17141 36857 ft 466 kts 140°
2026-05-01 09:21 10.87456 68.25378 36857 ft 466 kts 140°
2026-05-01 09:21 10.79857 68.31525 36856 ft 466 kts 140°
2026-05-01 09:22 10.69708 68.39728 36861 ft 466 kts 140°
2026-05-01 09:23 10.62092 68.45880 36863 ft 467 kts 140°
2026-05-01 09:24 10.54455 68.52043 36862 ft 467 kts 140°
2026-05-01 09:25 10.44268 68.60260 36862 ft 467 kts 140°
2026-05-01 09:26 10.36608 68.66434 36865 ft 467 kts 140°
2026-05-01 09:26 10.28989 68.72570 36865 ft 467 kts 140°
2026-05-01 09:27 10.21321 68.78741 36865 ft 467 kts 140°
2026-05-01 09:28 10.16240 68.82829 36865 ft 468 kts 140°
2026-05-01 09:28 10.11154 68.86919 36864 ft 468 kts 140°
2026-05-01 09:29 10.03472 68.93091 36864 ft 467 kts 140°
2026-05-01 09:30 9.95828 68.99232 36865 ft 467 kts 140°
2026-05-01 09:30 9.88193 69.05360 36865 ft 467 kts 140°
2026-05-01 09:31 9.83067 69.09473 36863 ft 467 kts 140°
2026-05-01 09:32 9.75414 69.15610 36864 ft 468 kts 140°
2026-05-01 09:32 9.67747 69.21751 36864 ft 468 kts 140°
2026-05-01 09:33 9.62641 69.25836 36864 ft 467 kts 140°
2026-05-01 09:34 9.54984 69.31961 36864 ft 467 kts 140°
2026-05-01 09:34 9.47317 69.38090 36864 ft 468 kts 140°
2026-05-01 09:35 9.39651 69.44215 36863 ft 468 kts 140°
2026-05-01 09:36 9.34554 69.48285 36863 ft 468 kts 140°
2026-05-01 09:36 9.29442 69.52365 36863 ft 468 kts 140°
2026-05-01 09:37 9.24322 69.56451 36863 ft 468 kts 140°
2026-05-01 09:37 9.16671 69.62551 36863 ft 468 kts 140°
2026-05-01 09:38 9.08997 69.68668 36866 ft 468 kts 141°
2026-05-01 09:39 9.01330 69.74778 36866 ft 468 kts 141°
2026-05-01 09:39 8.96215 69.78851 36865 ft 468 kts 141°
2026-05-01 09:40 8.88534 69.84964 36865 ft 468 kts 141°
2026-05-01 09:41 8.83425 69.89028 36865 ft 467 kts 141°
2026-05-01 09:41 8.75764 69.95120 36870 ft 467 kts 141°
2026-05-01 09:42 8.70651 69.99184 36872 ft 467 kts 141°
2026-05-01 09:43 8.60402 70.07327 36871 ft 467 kts 141°
2026-05-01 09:43 8.55298 70.11378 36871 ft 467 kts 141°
2026-05-01 09:44 8.47641 70.17454 36872 ft 467 kts 141°
2026-05-01 09:45 8.42513 70.21523 36872 ft 467 kts 141°
2026-05-01 09:45 8.34874 70.27579 36873 ft 467 kts 141°
2026-05-01 09:46 8.29744 70.31645 36873 ft 467 kts 141°
2026-05-01 09:46 8.24654 70.35679 36873 ft 467 kts 141°
2026-05-01 09:47 8.19532 70.39735 36873 ft 467 kts 141°
2026-05-01 09:47 8.14433 70.43774 36873 ft 467 kts 141°
2026-05-01 09:48 8.09310 70.47826 36873 ft 467 kts 141°
2026-05-01 09:48 8.04208 70.51864 36874 ft 467 kts 141°
2026-05-01 09:49 7.99102 70.55903 36874 ft 467 kts 141°
2026-05-01 09:49 7.93971 70.59961 36874 ft 467 kts 141°
2026-05-01 09:50 7.88872 70.63992 36875 ft 467 kts 141°
2026-05-01 09:50 7.83721 70.68062 36878 ft 467 kts 141°
2026-05-01 09:51 7.78632 70.72079 36879 ft 467 kts 141°
2026-05-01 09:51 7.73510 70.76125 36879 ft 467 kts 141°
2026-05-01 09:52 7.68408 70.80154 36879 ft 467 kts 141°
2026-05-01 09:52 7.63272 70.84208 36879 ft 467 kts 141°
2026-05-01 09:53 7.58177 70.88230 36879 ft 467 kts 141°
2026-05-01 09:53 7.53041 70.92281 36880 ft 467 kts 141°
2026-05-01 09:54 7.47921 70.96318 36880 ft 467 kts 141°
2026-05-01 09:54 7.42789 71.00358 36880 ft 467 kts 141°
2026-05-01 09:55 7.37676 71.04382 36880 ft 467 kts 141°
2026-05-01 09:55 7.32578 71.08392 36881 ft 467 kts 141°
2026-05-01 09:56 7.27419 71.12449 36881 ft 467 kts 141°
2026-05-01 09:56 7.22304 71.16473 36881 ft 467 kts 141°
2026-05-01 09:57 7.17159 71.20517 36881 ft 468 kts 141°
2026-05-01 09:57 7.12029 71.24548 36882 ft 468 kts 141°
2026-05-01 09:58 7.06886 71.28588 36882 ft 468 kts 141°
2026-05-01 09:58 7.01748 71.32624 36882 ft 469 kts 141°
2026-05-01 09:59 6.96612 71.36656 36882 ft 469 kts 141°
2026-05-01 09:59 6.91457 71.40703 36883 ft 469 kts 141°
2026-05-01 10:00 6.86284 71.44762 36883 ft 469 kts 141°
2026-05-01 10:00 6.81124 71.48811 36884 ft 469 kts 141°
2026-05-01 10:01 6.75998 71.52831 36884 ft 469 kts 141°
2026-05-01 10:01 6.70818 71.56895 36884 ft 470 kts 141°
2026-05-01 10:02 6.65670 71.60929 36883 ft 470 kts 141°
2026-05-01 10:02 6.60527 71.64960 36883 ft 470 kts 141°
2026-05-01 10:03 6.55336 71.69027 36884 ft 471 kts 141°
2026-05-01 10:03 6.50152 71.73086 36884 ft 471 kts 141°
2026-05-01 10:04 6.44989 71.77130 36884 ft 472 kts 141°
2026-05-01 10:04 6.39827 71.81171 36884 ft 472 kts 141°
2026-05-01 10:05 6.34341 71.84862 36884 ft 473 kts 150°
2026-05-01 10:05 6.28596 71.88076 36884 ft 474 kts 150°
2026-05-01 10:06 6.22832 71.91295 36884 ft 474 kts 150°
2026-05-01 10:06 6.17064 71.94518 36884 ft 474 kts 150°
2026-05-01 10:07 6.11270 71.97755 36884 ft 474 kts 150°
2026-05-01 10:07 6.05523 72.00965 36884 ft 474 kts 150°
2026-05-01 10:08 5.96861 72.05804 36883 ft 474 kts 150°
2026-05-01 10:09 5.91085 72.09030 36883 ft 474 kts 150°
2026-05-01 10:09 5.85278 72.12273 36883 ft 474 kts 150°
2026-05-01 10:10 5.79519 72.15485 36882 ft 474 kts 150°
2026-05-01 10:10 5.70834 72.20327 36882 ft 474 kts 150°
2026-05-01 10:11 5.65061 72.23545 36881 ft 474 kts 150°
2026-05-01 10:11 5.59319 72.26746 36880 ft 474 kts 150°
2026-05-01 10:12 5.53513 72.29980 36880 ft 473 kts 150°
2026-05-01 10:13 5.44911 72.34771 36838 ft 469 kts 150°
2026-05-01 10:13 5.42053 72.36362 36619 ft 469 kts 150°
2026-05-01 10:13 5.39161 72.37972 36324 ft 472 kts 150°
2026-05-01 10:14 5.33450 72.41153 35877 ft 471 kts 150°
2026-05-01 10:14 5.30554 72.42765 35650 ft 470 kts 150°
2026-05-01 10:14 5.27701 72.44353 35397 ft 470 kts 150°
2026-05-01 10:14 5.24848 72.45941 35131 ft 470 kts 150°
2026-05-01 10:15 5.22001 72.47526 34875 ft 470 kts 150°
2026-05-01 10:15 5.19137 72.49120 34632 ft 471 kts 150°
2026-05-01 10:15 5.16262 72.50719 34400 ft 471 kts 150°
2026-05-01 10:15 5.13387 72.52319 34171 ft 471 kts 150°
2026-05-01 10:16 5.10530 72.53908 33940 ft 471 kts 150°
2026-05-01 10:16 5.07655 72.55507 33525 ft 467 kts 150°
2026-05-01 10:16 5.01977 72.58665 32330 ft 466 kts 150°
2026-05-01 10:17 4.99126 72.60251 31782 ft 470 kts 150°
2026-05-01 10:17 4.93408 72.63430 30591 ft 471 kts 150°
2026-05-01 10:17 4.90562 72.65012 29989 ft 471 kts 150°
2026-05-01 10:18 4.84811 72.68209 28746 ft 469 kts 150°
2026-05-01 10:18 4.81958 72.69795 28157 ft 463 kts 150°
2026-05-01 10:18 4.79162 72.71348 27584 ft 458 kts 150°
2026-05-01 10:19 4.76387 72.72889 27099 ft 451 kts 150°
2026-05-01 10:19 4.73695 72.74385 26739 ft 440 kts 150°
2026-05-01 10:19 4.71022 72.75869 26364 ft 430 kts 150°
2026-05-01 10:20 4.65897 72.78713 25677 ft 418 kts 150°
2026-05-01 10:20 4.63315 72.80148 25357 ft 420 kts 150°
2026-05-01 10:20 4.60780 72.81555 25087 ft 418 kts 149°
2026-05-01 10:20 4.58239 72.82966 24864 ft 416 kts 149°
2026-05-01 10:21 4.55714 72.84367 24826 ft 416 kts 149°
2026-05-01 10:21 4.50593 72.87211 24818 ft 419 kts 149°
2026-05-01 10:21 4.48062 72.88615 24816 ft 410 kts 149°
2026-05-01 10:22 4.43217 72.91303 24862 ft 392 kts 149°
2026-05-01 10:22 4.38388 72.93983 24207 ft 394 kts 149°
2026-05-01 10:23 4.36019 72.95297 23782 ft 390 kts 149°
2026-05-01 10:23 4.31289 72.97921 22804 ft 386 kts 149°
2026-05-01 10:23 4.28948 72.99220 22251 ft 384 kts 149°
2026-05-01 10:24 4.24292 73.01803 21036 ft 379 kts 148°
2026-05-01 10:24 4.19723 73.04336 19828 ft 374 kts 148°
2026-05-01 10:25 4.15204 73.06841 18631 ft 368 kts 148°
2026-05-01 10:25 4.10743 73.09315 17438 ft 364 kts 148°
2026-05-01 10:26 4.08545 73.10533 16856 ft 361 kts 149°
2026-05-01 10:26 4.06358 73.11746 16359 ft 356 kts 149°
2026-05-01 10:26 4.02086 73.14114 15420 ft 347 kts 149°
2026-05-01 10:27 3.97905 73.16431 14719 ft 336 kts 149°
2026-05-01 10:27 3.93808 73.18515 14065 ft 326 kts 163°
2026-05-01 10:28 3.91580 73.18730 13731 ft 324 kts 185°
2026-05-01 10:28 3.87607 73.16798 13067 ft 318 kts 223°
2026-05-01 10:28 3.86042 73.15263 12762 ft 315 kts 224°
2026-05-01 10:29 3.83629 73.11704 12137 ft 308 kts 253°
2026-05-01 10:29 3.83167 73.09622 11891 ft 308 kts 262°
2026-05-01 10:30 3.83660 73.05483 11373 ft 303 kts 297°
2026-05-01 10:30 3.86604 73.02616 10857 ft 298 kts 336°
2026-05-01 10:31 3.90618 73.02237 10338 ft 294 kts 14°
2026-05-01 10:31 3.93998 73.04446 9826 ft 294 kts 53°
2026-05-01 10:32 3.95262 73.08298 9385 ft 297 kts 91°
2026-05-01 10:32 3.95110 73.10354 9193 ft 297 kts 94°
2026-05-01 10:32 3.94923 73.14475 8811 ft 297 kts 91°
2026-05-01 10:33 3.94841 73.18614 8366 ft 297 kts 96°
2026-05-01 10:33 3.94666 73.22732 7905 ft 297 kts 89°
2026-05-01 10:34 3.94689 73.24793 7672 ft 296 kts 89°
2026-05-01 10:34 3.94718 73.26839 7452 ft 292 kts 89°
2026-05-01 10:34 3.94744 73.28833 7263 ft 285 kts 89°
2026-05-01 10:35 3.94797 73.32737 6891 ft 273 kts 89°
2026-05-01 10:35 3.94819 73.34609 6706 ft 269 kts 89°
2026-05-01 10:35 3.94840 73.36477 6522 ft 269 kts 89°
2026-05-01 10:35 3.94857 73.38357 6330 ft 268 kts 89°
2026-05-01 10:36 3.94877 73.42042 5864 ft 263 kts 92°
2026-05-01 10:36 3.94869 73.43865 5633 ft 260 kts 89°
2026-05-01 10:36 3.94893 73.45650 5389 ft 256 kts 89°
2026-05-01 10:37 3.94893 73.47424 5153 ft 251 kts 90°
2026-05-01 10:37 3.95124 73.50819 4699 ft 241 kts 66°
2026-05-01 10:37 3.96097 73.52148 4465 ft 232 kts 38°
2026-05-01 10:38 3.97472 73.52915 4226 ft 223 kts 10°
2026-05-01 10:38 3.99002 73.53097 3925 ft 220 kts 359°
2026-05-01 10:38 4.00535 73.53136 3621 ft 217 kts 357°
2026-05-01 10:38 4.02036 73.53126 3316 ft 215 kts 356°
2026-05-01 10:39 4.03529 73.53115 3018 ft 211 kts 357°
2026-05-01 10:39 4.04985 73.53111 2713 ft 203 kts 357°
2026-05-01 10:39 4.06339 73.53111 2413 ft 189 kts 356°
2026-05-01 10:39 4.07637 73.53111 2140 ft 179 kts 356°
2026-05-01 10:40 4.08847 73.53104 1920 ft 171 kts 356°
2026-05-01 10:40 4.10001 73.53106 1709 ft 157 kts 356°
2026-05-01 10:40 4.11074 73.53108 1508 ft 154 kts 357°
2026-05-01 10:40 4.12157 73.53107 1298 ft 154 kts 356°
2026-05-01 10:41 4.13216 73.53094 1057 ft 152 kts 355°
2026-05-01 10:41 4.14281 73.53088 812 ft 150 kts 356°
2026-05-01 10:41 4.16335 73.53110 462 ft 146 kts 355°
2026-05-01 10:42 4.17362 73.53095 292 ft 149 kts 355°
2026-05-01 10:42 4.18407 73.53095 88 ft 147 kts 356°
2026-05-01 10:42 4.19384 73.53095 18 ft 127 kts 360°
2026-05-01 10:42 4.20124 73.53099 17 ft 78 kts
2026-05-01 10:43 4.20526 73.53100 17 ft 45 kts 359°
2026-05-01 10:43 4.20793 73.53099 17 ft 34 kts 359°
2026-05-01 10:43 4.21023 73.53099 17 ft 31 kts 359°
2026-05-01 10:43 4.21193 73.53100 17 ft 17 kts 360°
2026-05-01 10:44 4.21253 73.53062 17 ft 8 kts 287°
2026-05-01 10:44 4.21235 73.53008 17 ft 8 kts 216°
2026-05-01 10:44 4.21167 73.52985 17 ft 11 kts 194°
2026-05-01 10:44 4.21084 73.52965 17 ft 12 kts 195°
2026-05-01 10:45 4.21005 73.52943 17 ft 11 kts 196°
2026-05-01 10:45 4.20948 73.52960 17 ft 9 kts 109°
2026-05-01 10:45 4.20936 73.53025 17 ft 9 kts 92°
2026-05-01 10:45 4.20916 73.53088 17 ft 10 kts 143°
2026-05-01 10:46 4.20837 73.53101 17 ft 13 kts 180°
2026-05-01 10:46 4.20736 73.53101 17 ft 15 kts 179°
2026-05-01 10:46 4.20618 73.53102 17 ft 18 kts 180°
2026-05-01 10:46 4.20484 73.53101 17 ft 20 kts 180°
2026-05-01 10:47 4.20337 73.53103 17 ft 22 kts 181°
2026-05-01 10:47 4.20176 73.53101 17 ft 23 kts 180°
2026-05-01 10:47 4.20007 73.53101 17 ft 23 kts 180°
2026-05-01 10:47 4.19844 73.53101 17 ft 22 kts 180°
2026-05-01 10:48 4.19691 73.53102 17 ft 21 kts 180°
2026-05-01 10:48 4.19547 73.53102 17 ft 19 kts 180°
2026-05-01 10:48 4.19413 73.53102 17 ft 18 kts 180°
2026-05-01 10:48 4.19288 73.53102 17 ft 17 kts 180°
2026-05-01 10:49 4.19170 73.53102 17 ft 16 kts 180°
2026-05-01 10:49 4.19065 73.53102 17 ft 11 kts 179°
2026-05-01 10:49 4.19012 73.53076 17 ft 8 kts 249°
2026-05-01 10:49 4.19007 73.53020 17 ft 8 kts 269°
2026-05-01 10:50 4.19006 73.52959 17 ft 8 kts 267°
2026-05-01 10:50 4.18975 73.52921 17 ft 7 kts 192°
2026-05-01 10:50 4.18917 73.52920 17 ft 9 kts 179°
2026-05-01 10:50 4.18839 73.52921 17 ft 12 kts 180°
2026-05-01 10:51 4.18748 73.52922 17 ft 12 kts 178°
2026-05-01 10:51 4.18661 73.52924 17 ft 12 kts 179°
2026-05-01 10:51 4.18577 73.52926 17 ft 11 kts 179°
2026-05-01 10:51 4.18501 73.52925 17 ft 8 kts 192°
2026-05-01 10:52 4.18479 73.52889 17 ft 6 kts 249°
2026-05-01 10:52 4.18460 73.52852 17 ft 5 kts 249°
2026-05-01 10:52 4.18455 73.52815 17 ft 4 kts 269°
2026-05-01 10:52 4.18455 73.52793 17 ft 0 kts 269°
2026-05-01 10:53 4.18455 73.52792 17 ft 0 kts 269°